Location: Buch
(49.7331°N, 12.1098°E)
Time: 00:41:32
(UTC+00:00)

BREEZE-M DEB (TANK) - Pass Details

Date: 12 May 2021
Orbit: 284 x 18729 km, 52.5° (Epoch: 21 June)

Event Time Altitude Azimuth Distance (km) Brightness Sun altitude
Rises 19:38:36 0° 245° (WSW) 10,344 9.6 -7.7°
Reaches altitude 10° 19:48:57 10° 247° (WSW) 6,610 8.6 -9.0°
Maximum altitude 20:02:44 89° 332° (NNW) 963 4.0 -10.6°
Drops below altitude 10° 20:06:14 10° 70° (ENE) 1,806 5.2 -11.0°
Sets 20:07:31 0° 70° (ENE) 2,413 5.9 -11.1°
